Location: Unspecified
(50.1700°N, 6.8600°E)
Time: 10:11:58
(UTC+00:00)

Geosat - Pass Details

Date: 24 January 2019
Orbit: 763 x 766 km, 108.0° (Epoch: 19 April)

Event Time Altitude Azimuth Distance (km) Brightness Sun altitude
Rises 04:50:37 0° 140° (SE) 3,218 7.8 -23.2°
Reaches altitude 10° 04:52:54 10° 139° (SE) 2,295 7.0 -22.9°
Maximum altitude 04:57:52 70° 56° (ENE) 812 4.2 -22.1°
Enters shadow 05:01:02 23° 337° (NNW) 1,596 5.4 -21.6°
